 day,  time,  air_temp(C),  RH(%),  ground_temp10cm(C),  ground_temp20cm(C),  ground_temp40cm(C),  precipitation(mm/h),  Solar_Radiation(MJ/m2h),  lack, 
 08/12/01, 01:00,  -4.3,  88,   2.1,   3.3,   5.2,   0.0,  0.00, 
 08/12/01, 02:00,  -5.5,  89,   2.0,   3.3,   5.2,   0.0,  0.00, 
 08/12/01, 03:00,  -6.1,  90,   2.0,   3.3,   5.2,   0.0,  0.00, 
 08/12/01, 04:00,  -5.9,  91,   2.0,   3.2,   5.2,   0.0,  0.00, 
 08/12/01, 05:00,  -6.4,  93,   1.9,   3.2,   5.1,   0.0,  0.00, 
 08/12/01, 06:00,  -6.0,  90,   1.8,   3.2,   5.1,   0.0,  0.00, 
 08/12/01, 07:00,  -6.7,  95,   1.7,   3.2,   5.1,   0.0,  0.00, 
 08/12/01, 08:00,  -6.2,  95,   1.7,   3.2,   5.0,   0.0,  0.28, 
 08/12/01, 09:00,  -3.0,  91,   1.6,   3.2,   5.0,   0.0,  1.02, 
 08/12/01, 10:00,   1.0,  73,   1.6,   3.1,   5.0,   0.0,  1.42, 
 08/12/01, 11:00,   2.0,  67,   1.7,   3.1,   5.0,   0.0,  1.99, 
 08/12/01, 12:00,   2.0,  74,   1.7,   3.1,   5.0,   0.0,  1.95, 
 08/12/01, 13:00,   3.9,  74,   1.7,   3.1,   5.0,   0.0,  1.87, 
 08/12/01, 14:00,   4.7,  71,   1.7,   3.1,   5.1,   0.0,  1.29, 
 08/12/01, 15:00,   3.5,  75,   1.7,   3.0,   5.1,   0.0,  0.72, 
 08/12/01, 16:00,   3.3,  72,   1.7,   3.0,   5.1,   0.0,  0.38, 
 08/12/01, 17:00,   1.8,  76,   1.8,   3.0,   5.1,   0.0,  0.15, 
 08/12/01, 18:00,   1.0,  80,   1.8,   3.0,   5.1,   0.0,  0.04, 
 08/12/01, 19:00,   1.6,  74,   1.8,   3.0,   5.1,   0.0,  0.06, 
 08/12/01, 20:00,   1.9,  68,   1.8,   3.0,   5.1,   0.0,  0.02, 
 08/12/01, 21:00,   2.4,  68,   1.8,   3.0,   5.1,   0.0,  0.01, 
 08/12/01, 22:00,   2.1,  71,   1.7,   3.0,   5.1,   0.0,  0.02, 
 08/12/01, 23:00,   2.3,  70,   1.7,   3.0,   5.1,   0.0,  0.02, 
 08/12/02, 00:00,   2.4,  78,   1.7,   3.0,   5.1,   0.0,  0.00, 
 08/12/02, 01:00,   1.5,  85,   1.7,   3.0,   4.9,   0.0,  0.00, 
 08/12/02, 02:00,   0.6,  91,   1.8,   3.0,   5.0,   0.0,  0.01, 
 08/12/02, 03:00,  -0.1,  92,   1.7,   3.0,   5.0,   0.0,  0.00, 
 08/12/02, 04:00,   1.7,  72,   1.6,   3.0,   4.9,   0.0,  0.00, 
 08/12/02, 05:00,   3.6,  60,   1.6,   2.9,   5.0,   0.0,  0.00, 
 08/12/02, 06:00,   3.0,  63,   1.6,   2.9,   5.0,   0.0,  0.00, 
 08/12/02, 07:00,   0.4,  79,   1.6,   2.9,   4.9,   0.0,  0.02, 
 08/12/02, 08:00,   1.1,  90,   1.5,   2.9,   5.0,   0.0,  0.22, 
 08/12/02, 09:00,   3.3,  79,   1.5,   2.9,   5.0,   0.0,  0.76, 
 08/12/02, 10:00,   4.9,  69,   1.6,   2.9,   5.0,   0.0,  1.33, 
 08/12/02, 11:00,   3.5,  69,   1.6,   2.9,   5.0,   0.0,  1.58, 
 08/12/02, 12:00,   4.1,  65,   1.7,   2.9,   4.8,   0.0,  1.79, 
 08/12/02, 13:00,   5.6,  50,   1.6,   2.9,   5.0,   0.0,  1.77, 
 08/12/02, 14:00,   6.1,  55,   1.8,   2.9,   5.0,   0.0,  1.47, 
 08/12/02, 15:00,   5.0,  60,   2.0,   2.9,   5.0,   0.0,  0.78, 
 08/12/02, 16:00,   4.4,  65,   2.0,   2.9,   4.9,   0.0,  0.22, 
 08/12/02, 17:00,   3.7,  68,   2.0,   2.9,   4.9,   0.0,  0.14, 
 08/12/02, 18:00,   1.4,  81,   2.0,   2.9,   4.9,   0.0,  0.06, 
 08/12/02, 19:00,   1.2,  83,   2.0,   2.9,   4.9,   0.0,  0.05, 
 08/12/02, 20:00,   2.1,  75,   2.0,   2.9,   4.9,   0.0,  0.04, 
 08/12/02, 21:00,   0.0,  84,   1.9,   2.9,   4.9,   0.0,  0.03, 
 08/12/02, 22:00,  -0.3,  85,   1.9,   2.9,   4.9,   0.0,  0.02, 
 08/12/02, 23:00,   1.3,  75,   1.9,   2.9,   4.9,   0.0,  0.01, 
 08/12/03, 00:00,   0.7,  72,   1.8,   2.9,   4.8,   0.0,  0.02, 
 08/12/03, 01:00,   1.8,  65,   1.7,   2.9,   4.8,   0.0,  0.01, 
 08/12/03, 02:00,   2.2,  50,   1.6,   2.9,   4.9,   0.0,  0.00, 
 08/12/03, 03:00,  -0.1,  55,   1.6,   2.9,   4.8,   0.0,  0.00, 
 08/12/03, 04:00,   2.2,  46,   1.5,   2.9,   4.8,   0.0,  0.01, 
 08/12/03, 05:00,   1.8,  51,   1.6,   2.9,   4.8,   0.0,  0.00, 
 08/12/03, 06:00,   1.3,  51,   1.5,   2.9,   4.8,   0.0,  0.00, 
 08/12/03, 07:00,   0.7,  58,   1.4,   2.9,   4.8,   0.0,  0.00, 
 08/12/03, 08:00,   2.2,  60,   1.4,   2.8,   4.8,   0.0,  0.26, 
 08/12/03, 09:00,   3.5,  57,   1.4,   2.8,   4.6,   0.0,  0.71, 
 08/12/03, 10:00,   3.2,  70,   1.3,   2.8,   4.6,   0.0,  0.60, 
 08/12/03, 11:00,   3.8,  74,   1.3,   2.8,   4.5,   0.0,  0.93, 
 08/12/03, 12:00,   5.8,  56,   1.5,   2.8,   4.6,   0.0,  1.41, 
 08/12/03, 13:00,   6.4,  53,   1.5,   2.7,   4.8,   0.0,  1.71, 
 08/12/03, 14:00,   5.7,  59,   1.7,   2.7,   4.8,   0.0,  1.41, 
 08/12/03, 15:00,   6.5,  51,   1.8,   2.7,   4.8,   0.0,  0.78, 
 08/12/03, 16:00,   5.6,  55,   1.9,   2.7,   4.7,   0.0,  0.22, 
 08/12/03, 17:00,   4.6,  57,   1.9,   2.7,   4.8,   0.0,  0.11, 
 08/12/03, 18:00,   3.8,  62,   1.9,   2.8,   4.8,   0.0,  0.05, 
 08/12/03, 19:00,   2.8,  61,   1.9,   2.8,   4.8,   0.0,  0.06, 
 08/12/03, 20:00,   3.8,  57,   1.8,   2.8,   4.6,   0.0,  0.05, 
 08/12/03, 21:00,   2.9,  64,   1.8,   2.8,   4.6,   0.0,  0.05, 
 08/12/03, 22:00,   0.6,  74,   1.8,   2.8,   4.6,   0.0,  0.03, 
 08/12/03, 23:00,   2.2,  69,   1.8,   2.8,   4.7,   0.0,  0.04, 
 08/12/04, 00:00,   0.0,  79,   1.7,   2.8,   4.6,   0.0,  0.02, 
 08/12/04, 01:00,   0.5,  78,   1.7,   2.8,   4.6,   0.0,  0.02, 
 08/12/04, 02:00,   0.5,  79,   1.6,   2.8,   4.7,   0.0,  0.03, 
 08/12/04, 03:00,   0.5,  76,   1.6,   2.8,   4.6,   0.0,  0.03, 
 08/12/04, 04:00,   0.4,  73,   1.5,   2.8,   4.6,   0.0,  0.02, 
 08/12/04, 05:00,   0.4,  76,   1.5,   2.8,   4.6,   0.0,  0.01, 
 08/12/04, 06:00,   0.5,  78,   1.5,   2.8,   4.7,   0.0,  0.01, 
 08/12/04, 07:00,   1.1,  78,   1.4,   2.7,   4.6,   0.0,  0.00, 
 08/12/04, 08:00,   1.8,  77,   1.4,   2.7,   4.5,   0.0,  0.19, 
 08/12/04, 09:00,   5.8,  65,   1.4,   2.7,   4.7,   0.0,  0.72, 
 08/12/04, 10:00,   7.0,  59,   1.4,   2.7,   4.7,   0.0,  1.21, 
 08/12/04, 11:00,   7.4,  53,   1.4,   2.7,   4.8,   0.0,  1.57, 
 08/12/04, 12:00,   7.9,  51,   1.4,   2.7,   4.8,   0.0,  1.70, 
 08/12/04, 13:00,   8.2,  52,   1.5,   2.6,   4.5,   0.0,  1.68, 
 08/12/04, 14:00,   8.1,  55,   1.7,   2.6,   4.8,   0.0,  1.36, 
 08/12/04, 15:00,   7.1,  60,   2.0,   2.6,   4.8,   0.0,  0.90, 
 08/12/04, 16:00,   6.3,  61,   2.1,   2.6,   4.7,   0.0,  0.42, 
 08/12/04, 17:00,   5.0,  67,   2.1,   2.7,   4.7,   0.0,  0.15, 
 08/12/04, 18:00,   3.3,  75,   2.1,   2.7,   4.7,   0.0,  0.15, 
 08/12/04, 19:00,   4.3,  59,   2.1,   2.8,   4.6,   0.0,  0.15, 
 08/12/04, 20:00,   4.8,  54,   2.0,   2.8,   4.6,   0.0,  0.11, 
 08/12/04, 21:00,   4.8,  50,   1.9,   2.8,   4.6,   0.0,  0.11, 
 08/12/04, 22:00,   4.5,  49,   1.9,   2.8,   4.6,   0.0,  0.11, 
 08/12/04, 23:00,   2.7,  69,   1.9,   2.8,   4.6,   0.0,  0.08, 
 08/12/05, 00:00,   3.1,  70,   1.8,   2.8,   4.6,   0.0,  0.09, 
 08/12/05, 01:00,   5.7,  67,   1.8,   2.8,   4.6,   0.0,  0.11, 
 08/12/05, 02:00,   5.8,  74,   1.9,   2.8,   4.5,   0.0,  0.10, 
 08/12/05, 03:00,   5.3,  85,   2.0,   2.8,   4.4,   0.0,  0.10, 
 08/12/05, 04:00,   6.0,  86,   2.0,   2.8,   4.4,   0.0,  0.08, 
 08/12/05, 05:00,   6.9,  85,   2.1,   2.8,   4.4,   0.0,  0.07, 
 08/12/05, 06:00,   6.7,  89,   2.2,   2.8,   4.6,   0.0,  0.06, 
 08/12/05, 07:00,   7.4,  85,   2.3,   2.8,   4.6,   0.0,  0.09, 
 08/12/05, 08:00,   7.7,  82,   2.4,   2.9,   4.6,   0.0,  0.17, 
 08/12/05, 09:00,   6.9,  93,   2.5,   2.9,   4.6,   0.5,  0.21, 
 08/12/05, 10:00,   6.8,  93,   2.7,   2.9,   4.4,   0.0,  0.27, 
 08/12/05, 11:00,   5.2,  99,   2.8,   2.9,   4.4,   3.0,  0.25, 
 08/12/05, 12:00,   0.5,  99,   2.9,   3.0,   4.4,   9.0,  0.17, 
 08/12/05, 13:00,   0.5,  99,   2.7,   3.0,   4.5,   3.5,  0.16, 
 08/12/05, 14:00,   0.3,  99,   2.5,   3.0,   4.4,   4.0,  0.15, 
 08/12/05, 15:00,   0.3,  99,   2.4,   3.0,   4.4,   5.0,  0.09, 
 08/12/05, 16:00,   0.0,  99,   2.4,   3.1,   4.3,   1.5,  0.09, 
 08/12/05, 17:00,  -0.2,  98,   2.3,   3.1,   4.4,   0.0,  0.07, 
 08/12/05, 18:00,  -1.2,  99,   2.3,   3.1,   4.3,   0.5,  0.05, 
 08/12/05, 19:00,  -1.6,  99,   2.2,   3.1,   4.3,   0.0,  0.05, 
 08/12/05, 20:00,  -2.0,  99,   2.2,   3.0,   4.3,   0.0,  0.04, 
 08/12/05, 21:00,  -2.7,  99,   2.2,   3.0,   4.3,   0.0,  0.05, 
 08/12/05, 22:00,  -2.8,  99,   2.2,   3.0,   4.3,   0.0,  0.04, 
 08/12/05, 23:00,  -2.4,  97,   2.1,   3.0,   4.4,   0.0,  0.03, 
 08/12/06, 00:00,  -2.3,  97,   2.1,   3.0,   4.4,   0.0,  0.03, 
 08/12/06, 01:00,  -2.5,  99,   2.1,   3.0,   4.4,   0.0,  0.03, 
 08/12/06, 02:00,  -2.8,  99,   2.1,   3.0,   4.5,   0.0,  0.04, 
 08/12/06, 03:00,  -3.1,  99,   2.1,   3.0,   4.5,   0.0,  0.03, 
 08/12/06, 04:00,  -4.0,  97,   2.1,   3.0,   4.4,   0.0,  0.02, 
 08/12/06, 05:00,  -4.2,  95,   2.1,   3.0,   4.4,   0.0,  0.02, 
 08/12/06, 06:00,  -5.1,  93,   2.1,   3.0,   4.5,   0.0,  0.05, 
 08/12/06, 07:00,  -5.7,  91,   2.1,   3.0,   4.5,   0.0,  0.05, 
 08/12/06, 08:00,  -6.2,  92,   2.1,   3.0,   4.5,   0.0,  0.08, 
 08/12/06, 09:00,  -5.3,  95,   2.1,   3.0,   4.4,   0.0,  0.13, 
 08/12/06, 10:00,  -4.7,  96,   2.1,   3.0,   4.3,   0.0,  0.15, 
 08/12/06, 11:00,  -4.1,  93,   2.1,   2.9,   4.3,   0.0,  0.30, 
 08/12/06, 12:00,  -4.5,  93,   2.1,   2.9,   4.3,   0.0,  0.19, 
 08/12/06, 13:00,  -4.7,  95,   2.1,   2.9,   4.4,   0.0,  0.15, 
 08/12/06, 14:00,  -4.7,  95,   2.1,   2.9,   4.3,   0.0,  0.19, 
 08/12/06, 15:00,  -4.9,  91,   2.1,   2.9,   4.5,   0.0,  0.31, 
 08/12/06, 16:00,  -5.8,  89,   2.1,   2.9,   4.5,   0.0,  0.18, 
 08/12/06, 17:00,  -6.7,  91,   2.1,   2.9,   4.4,   0.0,  0.02, 
 08/12/06, 18:00,  -6.9,  94,   2.1,   2.9,   4.3,   0.0,  0.00, 
 08/12/06, 19:00,  -7.5,  94,   2.0,   2.9,   4.5,   0.5,  0.00, 
 08/12/06, 20:00,  -7.4,  93,   2.0,   2.9,   4.5,   0.0,  0.00, 
 08/12/06, 21:00,  -7.7,  94,   2.0,   2.9,   4.5,   0.0,  0.00, 
 08/12/06, 22:00,  -7.6,  94,   2.0,   2.9,   4.4,   0.0,  0.00, 
 08/12/06, 23:00,  -7.5,  94,   2.0,   2.9,   4.4,   0.0,  0.00, 
 08/12/07, 00:00,  -8.4,  90,   2.0,   2.9,   4.4,   0.0,  0.00, 
 08/12/07, 01:00,  -8.2,  84,   2.0,   2.9,   4.4,   0.0,  0.00, 
 08/12/07, 02:00,  -8.6,  84,   2.0,   2.9,   4.4,   0.0,  0.00, 
 08/12/07, 03:00,  -7.6,  79,   2.0,   2.9,   4.4,   0.0,  0.00, 
 08/12/07, 04:00,  -8.2,  87,   1.9,   2.9,   4.4,   0.0,  0.00, 
 08/12/07, 05:00,  -7.8,  89,   1.8,   2.9,   4.4,   0.0,  0.00, 
 08/12/07, 06:00,  -7.5,  85,   1.9,   2.9,   4.4,   0.0,  0.00, 
 08/12/07, 07:00,  -7.4,  91,   1.8,   2.9,   4.3,   0.0,  0.00, 
 08/12/07, 08:00,  -6.6,  86,   1.7,   2.8,   4.4,   0.0,  0.00, 
 08/12/07, 09:00,  -5.1,  91,   1.7,   2.8,   4.4,   0.0,  0.18, 
 08/12/07, 10:00,  -4.1,  93,   1.8,   2.8,   4.3,   0.0,  0.48, 
 08/12/07, 11:00,  -4.2,  92,   1.8,   2.8,   4.5,   0.0,  0.61, 
 08/12/07, 12:00,  -2.2,  90,   1.8,   2.8,   4.5,   0.0,  0.54, 
 08/12/07, 13:00,  -2.1,  90,   1.8,   2.8,   4.5,   0.0,  0.61, 
 08/12/07, 14:00,  -1.5,  85,   1.9,   2.8,   4.5,   0.0,  1.13, 
 08/12/07, 15:00,  -2.4,  86,   1.9,   2.8,   4.5,   0.0,  0.82, 
 08/12/07, 16:00,  -2.8,  83,   1.9,   2.8,   4.4,   0.0,  0.15, 
 08/12/07, 17:00,  -3.7,  89,   1.9,   2.8,   4.5,   0.0,  0.05, 
 08/12/07, 18:00,  -5.3,  93,   1.9,   2.8,   4.5,   0.0,  0.00, 
 08/12/07, 19:00,  -4.8,  85,   1.9,   2.8,   4.4,   0.0,  0.00, 
 08/12/07, 20:00,  -4.6,  83,   1.9,   2.8,   4.5,   0.0,  0.00, 
 08/12/07, 21:00,  -5.0,  85,   1.7,   2.8,   4.5,   0.0,  0.00, 
 08/12/07, 22:00,  -4.5,  75,   1.7,   2.8,   4.5,   0.0,  0.00, 
 08/12/07, 23:00,  -4.2,  80,   1.7,   2.7,   4.5,   0.0,  0.00, 
 08/12/08, 00:00,  -3.8,  79,   1.6,   2.7,   4.3,   0.0,  0.00, 
 08/12/08, 01:00,  -3.2,  76,   1.6,   2.7,   4.3,   0.0,  0.00, 
 08/12/08, 02:00,  -3.3,  80,   1.6,   2.7,   4.3,   0.0,  0.00, 
 08/12/08, 03:00,  -3.1,  79,   1.6,   2.7,   4.3,   0.0,  0.00, 
 08/12/08, 04:00,  -3.4,  81,   1.6,   2.7,   4.3,   0.0,  0.00, 
 08/12/08, 05:00,  -3.4,  80,   1.6,   2.7,   4.3,   0.0,  0.00, 
 08/12/08, 06:00,  -3.5,  82,   1.5,   2.7,   4.3,   0.0,  0.00, 
 08/12/08, 07:00,  -3.6,  82,   1.4,   2.6,   4.3,   0.0,  0.00, 
 08/12/08, 08:00,  -2.9,  78,   1.4,   2.6,   4.4,   0.0,  0.15, 
 08/12/08, 09:00,  -1.1,  79,   1.4,   2.6,   4.4,   0.0,  0.89, 
 08/12/08, 10:00,   0.0,  77,   1.5,   2.6,   4.2,   0.0,  1.34, 
 08/12/08, 11:00,   1.4,  70,   1.5,   2.6,   4.2,   0.0,  2.19, 
 08/12/08, 12:00,   1.5,  72,   1.5,   2.6,   4.3,   0.0,  1.91, 
 08/12/08, 13:00,   2.4,  73,   1.5,   2.6,   4.3,   0.0,  1.60, 
 08/12/08, 14:00,   1.3,  81,   1.5,   2.6,   4.3,   0.0,  0.91, 
 08/12/08, 15:00,   1.0,  83,   1.5,   2.5,   4.3,   0.0,  0.45, 
 08/12/08, 16:00,   0.4,  85,   1.5,   2.5,   4.4,   0.0,  0.28, 
 08/12/08, 17:00,   0.4,  83,   1.5,   2.5,   4.4,   0.0,  0.08, 
 08/12/08, 18:00,  -0.1,  86,   1.5,   2.5,   4.2,   0.0,  0.00, 
 08/12/08, 19:00,   0.0,  77,   1.6,   2.5,   4.2,   0.0,  0.00, 
 08/12/08, 20:00,  -0.4,  82,   1.6,   2.5,   4.4,   0.0,  0.00, 
 08/12/08, 21:00,   0.3,  77,   1.6,   2.5,   4.2,   0.0,  0.00, 
 08/12/08, 22:00,   2.3,  64,   1.6,   2.5,   4.1,   0.0,  0.00, 
 08/12/08, 23:00,   2.6,  62,   1.6,   2.5,   4.3,   0.0,  0.00, 
 08/12/09, 00:00,   2.1,  71,   1.6,   2.5,   4.1,   0.0,  0.00, 
 08/12/09, 01:00,   2.0,  76,   1.6,   2.5,   4.2,   0.0,  0.00, 
 08/12/09, 02:00,   0.3,  78,   1.6,   2.5,   4.1,   0.0,  0.00, 
 08/12/09, 03:00,  -0.7,  89,   1.5,   2.5,   4.1,   0.0,  0.00, 
 08/12/09, 04:00,   2.4,  63,   1.6,   2.5,   4.1,   0.0,  0.00, 
 08/12/09, 05:00,   2.3,  59,   1.7,   2.5,   4.1,   0.0,  0.00, 
 08/12/09, 06:00,   3.1,  61,   1.7,   2.5,   4.2,   0.0,  0.00, 
 08/12/09, 07:00,   3.7,  73,   1.7,   2.5,   4.2,   0.0,  0.00, 
 08/12/09, 08:00,   2.7,  77,   1.7,   2.5,   4.2,   0.0,  0.04, 
 08/12/09, 09:00,   5.4,  67,   1.6,   2.5,   4.1,   0.0,  0.50, 
 08/12/09, 10:00,   6.2,  60,   1.7,   2.5,   4.1,   0.0,  0.56, 
 08/12/09, 11:00,   7.6,  60,   1.7,   2.5,   4.1,   0.0,  1.09, 
 08/12/09, 12:00,   8.4,  61,   1.7,   2.5,   4.1,   0.0,  1.64, 
 08/12/09, 13:00,   8.9,  64,   1.7,   2.5,   4.3,   0.0,  1.55, 
 08/12/09, 14:00,   7.0,  75,   1.8,   2.5,   4.3,   0.0,  0.39, 
 08/12/09, 15:00,   4.7,  96,   1.8,   2.5,   4.2,   0.0,  0.13, 
 08/12/09, 16:00,   3.5,  99,   1.8,   2.6,   4.2,   1.0,  0.07, 
 08/12/09, 17:00,   3.5,  99,   1.8,   2.6,   4.2,   1.0,  0.03, 
 08/12/09, 18:00,   3.8,  98,   1.7,   2.6,   4.2,   2.0,  0.05, 
 08/12/09, 19:00,   3.1,  99,   1.7,   2.6,   4.2,   0.5,  0.04, 
 08/12/09, 20:00,   3.3,  99,   1.7,   2.5,   4.0,   0.5,  0.08, 
 08/12/09, 21:00,   3.0,  99,   1.7,   2.5,   4.1,   0.0,  0.09, 
 08/12/09, 22:00,   3.1,  99,   1.7,   2.5,   4.0,   0.0,  0.10, 
 08/12/09, 23:00,   3.6,  99,   1.7,   2.5,   4.1,   0.0,  0.09, 
 08/12/10, 00:00,   3.2,  99,   1.7,   2.5,   4.1,   0.0,  0.11, 
 08/12/10, 01:00,   3.9,  97,   1.7,   2.5,   4.1,   0.0,  0.09, 
 08/12/10, 02:00,   3.2,  99,   1.8,   2.5,   4.1,   0.0,  0.09, 
 08/12/10, 03:00,   3.4,  99,   1.8,   2.5,   4.0,   0.0,  0.10, 
 08/12/10, 04:00,   3.4,  99,   1.8,   2.5,   4.0,   0.0,  0.11, 
 08/12/10, 05:00,   3.3,  99,   1.8,   2.5,   3.9,   0.0,  0.12, 
 08/12/10, 06:00,   3.0,  99,   1.8,   2.5,   4.1,   0.0,  0.12, 
 08/12/10, 07:00,   2.4,  99,   1.8,   2.5,   4.1,   0.0,  0.11, 
 08/12/10, 08:00,   2.3,  99,   1.8,   2.5,   4.1,   0.0,  0.21, 
 08/12/10, 09:00,   3.7,  89,   1.8,   2.5,   4.1,   0.0,  0.67, 
 08/12/10, 10:00,   5.0,  82,   1.9,   2.5,   4.0,   0.0,  1.34, 
 08/12/10, 11:00,   4.9,  71,   2.0,   2.5,   3.9,   0.0,  1.65, 
 08/12/10, 12:00,   5.4,  79,   2.1,   2.5,   3.9,   0.0,  1.82, 
 08/12/10, 13:00,   6.8,  65,   2.2,   2.5,   3.9,   0.0,  1.73, 
 08/12/10, 14:00,   6.0,  63,   2.5,   2.6,   4.0,   0.5,  1.46, 
 08/12/10, 15:00,   5.3,  56,   2.7,   2.6,   4.0,   0.0,  0.64, 
 08/12/10, 16:00,   4.7,  57,   2.7,   2.6,   4.0,   0.0,  0.33, 
 08/12/10, 17:00,   2.5,  74,   2.6,   2.7,   3.9,   0.0,  0.20, 
 08/12/10, 18:00,   2.7,  66,   2.4,   2.7,   3.9,   0.0,  0.12, 
 08/12/10, 19:00,   3.2,  66,   2.3,   2.8,   3.9,   0.0,  0.12, 
 08/12/10, 20:00,   3.4,  55,   2.2,   2.8,   3.9,   0.0,  0.14, 
 08/12/10, 21:00,   1.4,  60,   2.0,   2.8,   3.9,   0.0,  0.13, 
 08/12/10, 22:00,   1.0,  55,   1.9,   2.8,   3.9,   0.0,  0.13, 
 08/12/10, 23:00,   0.6,  57,   1.8,   2.8,   4.0,   0.0,  0.12, 
 08/12/11, 00:00,   3.7,  43,   1.7,   2.8,   3.9,   0.0,  0.12, 
 08/12/11, 01:00,   2.3,  51,   1.7,   2.7,   3.9,   0.0,  0.12, 
 08/12/11, 02:00,   0.7,  65,   1.6,   2.7,   4.0,   0.0,  0.13, 
 08/12/11, 03:00,   1.0,  58,   1.5,   2.7,   4.0,   0.0,  0.14, 
 08/12/11, 04:00,   0.9,  61,   1.4,   2.7,   4.1,   0.0,  0.13, 
 08/12/11, 05:00,   1.8,  54,   1.4,   2.6,   4.0,   0.0,  0.13, 
 08/12/11, 06:00,   2.9,  49,   1.3,   2.6,   4.1,   0.0,  0.06, 
 08/12/11, 07:00,   1.4,  59,   1.3,   2.6,   4.0,   0.0,  0.06, 
 08/12/11, 08:00,   4.5,  42,   1.3,   2.5,   4.0,   0.0,  0.21, 
 08/12/11, 09:00,   5.8,  42,   1.2,   2.5,   4.0,   0.0,  0.70, 
 08/12/11, 10:00,   7.5,  36,   1.2,   2.5,   4.0,   0.0,  1.12, 
 08/12/11, 11:00,   7.5,  35,   1.2,   2.5,   4.0,   0.0,  1.43, 
 08/12/11, 12:00,   7.8,  35,   1.2,   2.5,   4.0,   0.0,  1.17, 
 08/12/11, 13:00,   8.3,  39,   1.5,   2.4,   3.9,   0.0,  1.50, 
 08/12/11, 14:00,   6.9,  45,   2.0,   2.5,   4.0,   0.0,  1.05, 
 08/12/11, 15:00,   6.0,  48,   2.3,   2.5,   4.0,   0.0,  0.77, 
 08/12/11, 16:00,   4.9,  59,   2.5,   2.4,   3.9,   0.0,  0.41, 
 08/12/11, 17:00,   4.4,  70,   2.5,   2.5,   4.1,   0.0,  0.23, 
 08/12/11, 18:00,   4.1,  75,   2.5,   2.6,   4.0,   0.0,  0.26, 
 08/12/11, 19:00,   2.9,  95,   2.4,   2.6,   4.1,   0.0,  0.17, 
 08/12/11, 20:00,   1.9,  99,   2.4,   2.7,   3.9,   1.5,  0.15, 
 08/12/11, 21:00,   1.3,  99,   2.3,   2.7,   3.9,   2.0,  0.16, 
 08/12/11, 22:00,   1.3,  99,   2.3,   2.7,   3.9,   0.0,  0.11, 
 08/12/11, 23:00,   1.6,  99,   2.2,   2.7,   3.9,   0.0,  0.13, 
 08/12/12, 00:00,   0.8,  99,   2.2,   2.7,   3.9,   0.0,  0.12, 
 08/12/12, 01:00,   0.3,  99,   2.1,   2.7,   3.9,   0.0,  0.13, 
 08/12/12, 02:00,   0.6,  99,   2.1,   2.7,   3.9,   0.0,  0.12, 
 08/12/12, 03:00,   0.4,  96,   2.0,   2.7,   3.9,   0.0,  0.11, 
 08/12/12, 04:00,   0.3,  97,   1.9,   2.7,   3.9,   0.0,  0.14, 
 08/12/12, 05:00,  -0.1,  95,   1.8,   2.7,   3.9,   0.0,  0.09, 
 08/12/12, 06:00,  -0.9,  96,   1.8,   2.7,   3.9,   0.0,  0.09, 
 08/12/12, 07:00,  -0.4,  91,   1.7,   2.7,   3.9,   0.0,  0.10, 
 08/12/12, 08:00,   0.1,  87,   1.6,   2.7,   3.9,   0.0,  0.25, 
 08/12/12, 09:00,   1.8,  68,   1.6,   2.6,   3.9,   0.0,  0.83, 
 08/12/12, 10:00,   3.0,  69,   1.5,   2.6,   3.9,   0.0,  0.98, 
 08/12/12, 11:00,   4.1,  61,   1.6,   2.6,   3.9,   0.0,  0.93, 
 08/12/12, 12:00,   3.8,  66,   1.8,   2.6,   4.0,   0.0,  1.54, 
 08/12/12, 13:00,   2.9,  71,   2.1,   2.6,   4.0,   0.0,  1.01, 
 08/12/12, 14:00,   2.5,  75,   2.3,   2.6,   4.0,   0.0,  0.68, 
 08/12/12, 15:00,   3.1,  74,   2.5,   2.6,   4.0,   0.0,  0.67, 
 08/12/12, 16:00,   2.8,  77,   2.7,   2.6,   4.0,   0.0,  0.55, 
 08/12/12, 17:00,   1.2,  85,   2.7,   2.7,   4.0,   0.0,  0.25, 
 08/12/12, 18:00,   0.9,  93,   2.6,   2.7,   4.1,   0.0,  0.17, 
 08/12/12, 19:00,   0.4,  92,   2.5,   2.8,   4.0,   0.0,  0.14, 
 08/12/12, 20:00,  -0.1,  91,   2.4,   2.8,   3.9,   0.0,  0.13, 
 08/12/12, 21:00,  -1.1,  92,   2.3,   2.8,   4.0,   0.0,  0.15, 
 08/12/12, 22:00,  -0.6,  88,   2.2,   2.8,   4.0,   0.0,  0.13, 
 08/12/12, 23:00,  -2.0,  90,   2.0,   2.8,   4.1,   0.0,  0.12, 
 08/12/13, 00:00,  -2.6,  94,   1.9,   2.8,   4.1,   0.0,  0.10, 
 08/12/13, 01:00,  -2.0,  84,   1.8,   2.8,   4.1,   0.0,  0.11, 
 08/12/13, 02:00,  -2.2,  81,   1.7,   2.8,   4.1,   0.0,  0.11, 
 08/12/13, 03:00,  -2.8,  87,   1.6,   2.8,   4.1,   0.0,  0.09, 
 08/12/13, 04:00,  -1.7,  78,   1.5,   2.7,   4.1,   0.0,  0.06, 
 08/12/13, 05:00,  -2.0,  78,   1.4,   2.7,   4.1,   0.0,  0.06, 
 08/12/13, 06:00,  -1.5,  76,   1.4,   2.6,   4.1,   0.0,  0.06, 
 08/12/13, 07:00,  -0.5,  65,   1.3,   2.6,   4.1,   0.0,  0.06, 
 08/12/13, 08:00,   1.8,  78,   1.3,   2.6,   4.1,   0.0,  0.18, 
 08/12/13, 09:00,   3.1,  74,   1.2,   2.5,   4.0,   0.0,  0.59, 
 08/12/13, 10:00,   4.0,  62,   1.2,   2.5,   4.0,   0.0,  1.05, 
 08/12/13, 11:00,   5.1,  56,   1.2,   2.5,   4.0,   0.0,  1.42, 
 08/12/13, 12:00,   5.5,  52,   1.2,   2.4,   4.0,   0.0,  1.20, 
 08/12/13, 13:00,   4.2,  69,   1.4,   2.4,   4.0,   0.0,  1.23, 
 08/12/13, 14:00,   6.0,  58,   1.8,   2.4,   4.0,   0.0,  1.45, 
 08/12/13, 15:00,   4.7,  51,   2.1,   2.4,   4.0,   0.0,  0.74, 
 08/12/13, 16:00,   4.4,  60,   2.2,   2.4,   4.0,   0.0,  0.31, 
 08/12/13, 17:00,   1.9,  87,   2.2,   2.5,   3.9,   0.0,  0.20, 
 08/12/13, 18:00,   0.9,  90,   2.0,   2.5,   4.1,   0.0,  0.10, 
 08/12/13, 19:00,   0.1,  92,   1.9,   2.5,   4.1,   0.0,  0.06, 
 08/12/13, 20:00,   0.3,  93,   1.9,   2.6,   4.0,   0.0,  0.09, 
 08/12/13, 21:00,   0.5,  91,   1.8,   2.6,   4.0,   0.0,  0.10, 
 08/12/13, 22:00,   0.0,  95,   1.7,   2.6,   4.0,   0.0,  0.07, 
 08/12/13, 23:00,   0.0,  95,   1.7,   2.6,   3.9,   0.0,  0.06, 
 08/12/14, 00:00,   0.0,  94,   1.7,   2.6,   3.9,   0.0,  0.05, 
 08/12/14, 01:00,   0.0,  86,   1.6,   2.6,   3.9,   0.0,  0.06, 
 08/12/14, 02:00,  -0.6,  95,   1.6,   2.5,   3.9,   0.0,  0.06, 
 08/12/14, 03:00,  -0.7,  95,   1.6,   2.5,   3.9,   0.5,  0.05, 
 08/12/14, 04:00,  -0.6,  97,   1.6,   2.5,   4.0,   0.0,  0.05, 
 08/12/14, 05:00,  -1.1,  99,   1.6,   2.5,   3.9,   0.5,  0.05, 
 08/12/14, 06:00,  -1.2,  99,   1.6,   2.5,   4.0,   0.0,  0.06, 
 08/12/14, 07:00,  -1.8,  99,   1.6,   2.5,   3.9,   0.5,  0.04, 
 08/12/14, 08:00,  -2.0,  99,   1.6,   2.5,   4.0,   0.5,  0.08, 
 08/12/14, 09:00,  -2.2,  98,   1.6,   2.5,   3.9,   0.0,  0.13, 
 08/12/14, 10:00,  -2.3,  99,   1.6,   2.5,   3.9,   0.0,  0.19, 
 08/12/14, 11:00,  -1.9,  99,   1.6,   2.5,   3.9,   0.0,  0.36, 
 08/12/14, 12:00,  -1.8,  99,   1.6,   2.5,   3.9,   0.0,  0.44, 
 08/12/14, 13:00,  -2.3,  98,   1.6,   2.4,   3.9,   0.0,  0.36, 
 08/12/14, 14:00,  -1.9,  97,   1.6,   2.4,   4.0,   0.0,  0.30, 
 08/12/14, 15:00,  -2.1,  97,   1.6,   2.4,   3.9,   0.0,  0.32, 
 08/12/14, 16:00,  -2.3,  97,   1.7,   2.4,   3.9,   0.0,  0.15, 
 08/12/14, 17:00,  -3.2,  95,   1.7,   2.4,   3.9,   0.0,  0.09, 
 08/12/14, 18:00,  -3.4,  97,   1.7,   2.4,   3.9,   0.0,  0.00, 
 08/12/14, 19:00,  -3.5,  97,   1.7,   2.4,   4.0,   0.0,  0.00, 
 08/12/14, 20:00,  -3.7,  99,   1.6,   2.5,   4.0,   0.0,  0.01, 
 08/12/14, 21:00,  -3.8,  98,   1.6,   2.4,   4.0,   0.0,  0.00, 
 08/12/14, 22:00,  -4.3,  96,   1.6,   2.4,   3.9,   0.0,  0.00, 
 08/12/14, 23:00,  -4.8,  97,   1.5,   2.4,   4.0,   0.0,  0.00, 
 08/12/15, 00:00,  -5.2,  95,   1.5,   2.4,   4.0,   0.0,  0.05, 
 08/12/15, 01:00,  -5.3,  95,   1.5,   2.4,   4.0,   0.0,  0.03, 
 08/12/15, 02:00,  -5.3,  89,   1.4,   2.4,   4.0,   0.0,  0.01, 
 08/12/15, 03:00,  -5.4,  87,   1.4,   2.4,   4.0,   0.0,  0.00, 
 08/12/15, 04:00,  -5.4,  75,   1.4,   2.4,   4.0,   0.0,  0.00, 
 08/12/15, 05:00,  -6.1,  80,   1.3,   2.4,   4.0,   0.0,  0.00, 
 08/12/15, 06:00,  -5.1,  74,   1.2,   2.4,   4.0,   0.0,  0.00, 
 08/12/15, 07:00,  -5.4,  79,   1.2,   2.3,   3.9,   0.0,  0.00, 
 08/12/15, 08:00,  -5.8,  86,   1.1,   2.3,   3.9,   0.0,  0.11, 
 08/12/15, 09:00,  -1.7,  76,   1.1,   2.3,   3.9,   0.0,  0.63, 
 08/12/15, 10:00,  -0.4,  59,   1.1,   2.3,   3.8,   0.0,  1.03, 
 08/12/15, 11:00,  -0.8,  62,   1.1,   2.3,   3.8,   0.0,  1.44, 
 08/12/15, 12:00,  -0.1,  69,   1.1,   2.2,   3.8,   0.0,  1.05, 
 08/12/15, 13:00,  -0.1,  67,   1.1,   2.2,   3.9,   0.0,  0.60, 
 08/12/15, 14:00,  -0.7,  74,   1.1,   2.2,   3.8,   0.0,  0.40, 
 08/12/15, 15:00,  -1.1,  84,   1.1,   2.2,   3.8,   0.0,  0.26, 
 08/12/15, 16:00,  -1.4,  76,   1.1,   2.2,   3.9,   0.0,  0.24, 
 08/12/15, 17:00,  -1.9,  75,   1.1,   2.2,   3.8,   0.0,  0.18, 
 08/12/15, 18:00,  -2.3,  73,   1.1,   2.2,   3.8,   0.0,  0.09, 
 08/12/15, 19:00,  -3.0,  69,   1.1,   2.1,   3.9,   0.5,  0.09, 
 08/12/15, 20:00,  -3.1,  68,   1.1,   2.1,   3.9,   0.0,  0.09, 
 08/12/15, 21:00,  -2.2,  67,   1.0,   2.1,   3.9,   0.0,  0.08, 
 08/12/15, 22:00,  -1.4,  65,   1.0,   2.1,   3.9,   0.0,  0.09, 
 08/12/15, 23:00,  -1.9,  72,   1.0,   2.1,   3.9,   0.0,  0.09, 
 08/12/16, 00:00,  -1.7,  72,   1.0,   2.1,   3.9,   0.0,  0.09, 
 08/12/16, 01:00,  -2.3,  78,   1.0,   2.1,   3.9,   0.0,  0.07, 